Location: Shenandoah County Park
(38.9356°N, 78.4524°W)
Time: 13:05:10
(UTC-04:00)

Envisat - Pass Details

Date: 27 May 2024
Orbit: 762 x 764 km, 98.3° (Epoch: 14 June)

Event Time Altitude Azimuth Distance (km) Brightness Sun altitude
Rises 03:24:19 0° 30° (NNE) 3,232 7.8 -22.1°
Reaches altitude 10° 03:27:17 10° 48° (NE) 2,301 6.5 -21.8°
Maximum altitude 03:30:51 19° 93° (E) 1,749 5.2 -21.4°
Drops below altitude 10° 03:34:24 10° 138° (SE) 2,289 5.3 -21.0°
Enters shadow 03:35:29 - 146° (SE) 2,600 5.5 -20.8°
